Regional Weather Roundup
Issued by NWS

Home | Current Version | Previous Version | Text Only | Print | Product List | Glossary On
Versions: 1 2 3 4 5 6 7 8 9 10 11 12 13 14 15 16 17 18 19 20 21 22 23 24 25 26 27 28 29 30 31 32 33 34 35 36 37 38 39 40 41 42 43 44 45 46 47 48 49 50
000
ASUS43 KLSX 272059
RWRMO

WEATHER SUMMARY FOR MISSOURI
NATIONAL WEATHER SERVICE SPRINGFIELD MO
400 PM CDT SUN JUL 27 2014

NOTE: "FAIR" INDICATES FEW OR NO CLOUDS BELOW 12,000 FEET WITH NO
       SIGNIFICANT WEATHER AND/OR OBSTRUCTIONS TO VISIBILITY.
       CURRENT SKY AND/OR WEATHER CONDITIONS ARE NOT AVAILABLE FOR
       CHILLICOTHE AND FARMINGTON.

MOZ001>031-035>038-043-044-053-054-272200-
...NORTHERN AND WESTERN MISSOURI...

CITY           SKY/WX    TMP DP  RH WIND       PRES   REMARKS
KANSAS CTY INT MOSUNNY   86  57  37 NW15G21   30.06R
KANSAS C DTWN  LGT RAIN  89  53  29 NW16G24   30.04R
LEE`S SUMMIT   PTSUNNY   87  56  34 N15G22    30.05S
ST JOSEPH      SUNNY     85  59  41 NW17G26   30.05S
CHILLICOTHE      N/A     86  58  38 NW13G25   30.00F
KIRKSVILLE     SUNNY     83  56  39 NW20G30   29.98S

$$
MOZ066>068-077>081-088>096-101>105-272200-
...SOUTHWEST MISSOURI...

CITY           SKY/WX    TMP DP  RH WIND       PRES   REMARKS
SPRINGFIELD    PTSUNNY   89  59  36 NW12G20   30.03R
JOPLIN         LGT RAIN  83  67  58 N5        30.08R

$$
MOZ032>034-039>042-045>050-055>058-069>072-272200-
...CENTRAL MISSOURI...

CITY           SKY/WX    TMP DP  RH WIND       PRES   REMARKS
COLUMBIA       SUNNY     88  56  33 W17       29.97S
JEFFERSON CITY MOSUNNY   88  56  33 NW16G23   29.95S
ROLLA          MOSUNNY   91  56  30 NW14G23   29.95F
SEDALIA        MOSUNNY   86  58  38 NW13G22   30.02R
OSAGE BEACH      N/A     90  63  40 W10       29.98S HX  90

$$
MOZ051-052-059>065-272200-
...EAST CENTRAL MISSOURI...

CITY           SKY/WX    TMP DP  RH WIND       PRES   REMARKS
ST LOUIS INTL  MOSUNNY   92  60  34 NW14G26   29.89S HX  91
SPIRIT OF STL  MOSUNNY   92  60  34 NW15G24   29.88S HX  91
ST CHARLES     SUNNY     89  60  37 NW18G29   29.88R

$$
MOZ072>076-082>087-097>100-106>115-272200-
...SOUTH CENTRAL AND SOUTHEAST MISSOURI...

CITY           SKY/WX    TMP DP  RH WIND       PRES   REMARKS
CAPE GIRARDEAU PTSUNNY   92  73  53 NW12      29.86S HX 100
FARMINGTON     PTSUNNY   91  64  40 NW10G16   29.93S HX  93
POPLAR BLUFF   MOSUNNY   93  74  53 NW3       29.87F HX 103
WEST PLAINS    PTSUNNY   91  64  40 NW9       29.99S HX  92

$$



USA.gov is the U.S. government's official web portal to all federal, state and local government web resources and services.